RYR238 LICJ-LIEE

Flight info

Callsign RYR238
Flight time 0h 32m
Altitude 22000
Route KAPIL M871 NEVOT
Aircraft B738/M-SDE2E3FGHIRWXY/LB1

Departure

Time 2026-04-28 21:10
Airport Falcone–Borsellino Airport (LICJ)

Arrival

Time 2026-04-28 21:42
Airport Cagliari Elmas Airport (LIEE)
Time Latitude Longitude Altitude Speed Heading
2026-04-28 21:10 38.18733 13.02782 4109 ft 193 kts 279°
2026-04-28 21:10 38.19051 13.00992 4392 ft 219 kts 280°
2026-04-28 21:11 38.19642 12.97723 4909 ft 244 kts 280°
2026-04-28 21:11 38.23050 12.79196 8118 ft 336 kts 283°
2026-04-28 21:11 38.24484 12.71863 10749 ft 320 kts 283°
2026-04-28 21:11 38.26611 12.60864 13949 ft 333 kts 283°
2026-04-28 21:12 38.28905 12.48668 16210 ft 367 kts 283°
2026-04-28 21:12 38.31242 12.36151 19095 ft 373 kts 283°
2026-04-28 21:12 38.33677 12.23028 21308 ft 389 kts 283°
2026-04-28 21:12 38.36397 12.09235 22282 ft 420 kts 289°
2026-04-28 21:13 38.40757 11.95125 22057 ft 425 kts 291°
2026-04-28 21:13 38.44978 11.81552 21990 ft 406 kts 290°
2026-04-28 21:13 38.49099 11.67713 22134 ft 430 kts 290°
2026-04-28 21:13 38.53444 11.53061 22092 ft 449 kts 290°
2026-04-28 21:14 38.57866 11.38112 22004 ft 447 kts 290°
2026-04-28 21:14 38.62185 11.23425 22015 ft 437 kts 290°
2026-04-28 21:14 38.66383 11.09064 22070 ft 437 kts 289°
2026-04-28 21:14 38.70664 10.94342 22082 ft 447 kts 289°
2026-04-28 21:15 38.74980 10.79406 22023 ft 445 kts 289°
2026-04-28 21:15 38.76701 10.73425 22036 ft 440 kts 289°
2026-04-28 21:15 38.77754 10.69755 22045 ft 440 kts 289°
2026-04-28 21:15 38.78811 10.66063 22053 ft 442 kts 289°
2026-04-28 21:16 38.79872 10.62356 22047 ft 444 kts 289°
2026-04-28 21:16 38.80942 10.58610 22051 ft 449 kts 289°
2026-04-28 21:16 38.82015 10.54851 22040 ft 448 kts 289°
2026-04-28 21:16 38.83083 10.51108 22031 ft 447 kts 289°
2026-04-28 21:17 38.84133 10.47419 22039 ft 446 kts 289°
2026-04-28 21:17 38.85195 10.43686 22041 ft 445 kts 289°
2026-04-28 21:17 38.86254 10.39954 22040 ft 445 kts 289°
2026-04-28 21:17 38.87313 10.36221 22042 ft 446 kts 289°
2026-04-28 21:18 38.88372 10.32478 22040 ft 446 kts 289°
2026-04-28 21:18 38.89430 10.28736 22041 ft 446 kts 289°
2026-04-28 21:18 38.90488 10.24988 22047 ft 447 kts 289°
2026-04-28 21:18 38.91546 10.21235 22044 ft 448 kts 289°
2026-04-28 21:19 38.92607 10.17465 22046 ft 449 kts 289°
2026-04-28 21:19 38.93656 10.13734 22043 ft 450 kts 289°
2026-04-28 21:19 38.94715 10.09961 22037 ft 450 kts 289°
2026-04-28 21:19 38.95776 10.06174 22038 ft 450 kts 289°
2026-04-28 21:20 38.96835 10.02390 22041 ft 450 kts 289°
2026-04-28 21:20 38.97894 9.98599 22040 ft 450 kts 289°
2026-04-28 21:20 38.98950 9.94816 22033 ft 448 kts 289°
2026-04-28 21:20 38.99992 9.91077 21464 ft 440 kts 289°
2026-04-28 21:21 39.01013 9.87411 20813 ft 432 kts 289°
2026-04-28 21:21 39.02016 9.83800 20124 ft 426 kts 289°
2026-04-28 21:21 39.03006 9.80232 19437 ft 421 kts 289°
2026-04-28 21:21 39.03986 9.76697 18743 ft 417 kts 289°
2026-04-28 21:22 39.04941 9.73250 17980 ft 414 kts 289°
2026-04-28 21:22 39.05905 9.69770 17232 ft 410 kts 289°
2026-04-28 21:22 39.06857 9.66332 16524 ft 406 kts 289°
2026-04-28 21:22 39.07795 9.62936 15844 ft 401 kts 289°
2026-04-28 21:23 39.08723 9.59573 15181 ft 397 kts 289°
2026-04-28 21:23 39.09642 9.56242 14521 ft 393 kts 288°
2026-04-28 21:23 39.10551 9.52937 13863 ft 390 kts 289°
2026-04-28 21:23 39.11487 9.49668 13101 ft 388 kts 292°
2026-04-28 21:24 39.12868 9.46726 12260 ft 390 kts 307°
2026-04-28 21:24 39.14696 9.44173 11605 ft 387 kts 315°
2026-04-28 21:24 39.16803 9.42066 11222 ft 377 kts 322°
2026-04-28 21:24 39.18890 9.40146 11058 ft 361 kts 322°
2026-04-28 21:25 39.20881 9.38278 10894 ft 347 kts 321°
2026-04-28 21:25 39.22793 9.36466 10729 ft 334 kts 321°
2026-04-28 21:25 39.24629 9.34719 10603 ft 323 kts 321°
2026-04-28 21:25 39.26412 9.33020 10464 ft 312 kts 321°
2026-04-28 21:26 39.28128 9.31382 10331 ft 303 kts 321°
2026-04-28 21:26 39.29793 9.29791 10209 ft 292 kts 321°
2026-04-28 21:26 39.31396 9.28259 10094 ft 284 kts 320°
2026-04-28 21:26 39.32946 9.26776 9888 ft 279 kts 320°
2026-04-28 21:27 39.34502 9.25286 9580 ft 278 kts 320°
2026-04-28 21:27 39.36053 9.23800 9265 ft 277 kts 320°
2026-04-28 21:27 39.37604 9.22313 8944 ft 277 kts 320°
2026-04-28 21:27 39.39145 9.20835 8641 ft 276 kts 320°
2026-04-28 21:28 39.40688 9.19355 8350 ft 276 kts 320°
2026-04-28 21:28 39.42225 9.17880 8057 ft 275 kts 320°
2026-04-28 21:28 39.43763 9.16405 7760 ft 275 kts 321°
2026-04-28 21:28 39.45293 9.14936 7553 ft 271 kts 321°
2026-04-28 21:29 39.46789 9.13500 7429 ft 265 kts 321°
2026-04-28 21:29 39.48232 9.12115 7312 ft 258 kts 321°
2026-04-28 21:29 39.49653 9.10739 7195 ft 251 kts 317°
2026-04-28 21:29 39.50648 9.08997 7071 ft 236 kts 284°
2026-04-28 21:30 39.50794 9.06959 6895 ft 227 kts 258°
2026-04-28 21:30 39.50260 9.05039 6589 ft 228 kts 237°
2026-04-28 21:30 39.49195 9.03524 6252 ft 230 kts 217°
2026-04-28 21:30 39.47893 9.02291 5867 ft 235 kts 215°
2026-04-28 21:31 39.46554 9.01046 5504 ft 239 kts 215°
2026-04-28 21:31 39.45189 8.99775 5132 ft 243 kts 214°
2026-04-28 21:31 39.43805 8.98480 4752 ft 248 kts 214°
2026-04-28 21:31 39.42418 8.97180 4358 ft 252 kts 213°
2026-04-28 21:32 39.40991 8.95839 3962 ft 255 kts 213°
2026-04-28 21:32 39.39602 8.94532 3857 ft 236 kts 213°
2026-04-28 21:32 39.38312 8.93375 3698 ft 216 kts 203°
2026-04-28 21:32 39.36926 8.93032 3424 ft 197 kts 171°
2026-04-28 21:33 39.35655 8.93477 3187 ft 184 kts 153°
2026-04-28 21:33 39.34643 8.94412 2954 ft 177 kts 137°
2026-04-28 21:33 39.33704 8.95515 2261 ft 190 kts 137°
2026-04-28 21:33 39.32703 8.96671 1778 ft 191 kts 137°
2026-04-28 21:34 39.31747 8.97775 1498 ft 180 kts 137°
2026-04-28 21:34 39.30845 8.98817 1283 ft 166 kts 137°
2026-04-28 21:34 39.30026 8.99765 1089 ft 151 kts 137°
2026-04-28 21:34 39.29265 9.00648 904 ft 145 kts 139°
2026-04-28 21:35 39.28510 9.01521 715 ft 146 kts 140°
2026-04-28 21:35 39.27763 9.02386 519 ft 144 kts 140°
2026-04-28 21:35 39.27022 9.03246 356 ft 144 kts 139°
2026-04-28 21:35 39.26275 9.04109 117 ft 143 kts 141°
2026-04-28 21:36 39.25556 9.04959 27 ft 140 kts 140°
2026-04-28 21:36 39.24840 9.05791 20 ft 140 kts 134°
2026-04-28 21:36 39.24019 9.06683 722 ft 152 kts 155°
2026-04-28 21:36 39.22952 9.06648 1323 ft 164 kts 208°
2026-04-28 21:37 39.22316 9.05448 1685 ft 168 kts 256°
2026-04-28 21:37 39.22276 9.03743 1833 ft 209 kts 271°
2026-04-28 21:37 39.22457 9.01891 1841 ft 207 kts 276°
2026-04-28 21:37 39.22690 9.00047 1804 ft 213 kts 277°
2026-04-28 21:38 39.22920 8.98159 1791 ft 210 kts 277°
2026-04-28 21:38 39.23510 8.96479 1849 ft 207 kts 310°
2026-04-28 21:38 39.24532 8.95155 1912 ft 210 kts 317°
2026-04-28 21:38 39.25577 8.93844 1993 ft 215 kts 316°
2026-04-28 21:39 39.26625 8.92539 1969 ft 206 kts 324°
2026-04-28 21:39 39.27935 8.91948 1715 ft 197 kts
2026-04-28 21:39 39.29187 8.92400 1504 ft 184 kts 38°
2026-04-28 21:39 39.29945 8.93648 1248 ft 176 kts 75°
2026-04-28 21:40 39.29961 8.95165 1141 ft 164 kts 98°
2026-04-28 21:40 39.29824 8.96582 1036 ft 157 kts 99°
2026-04-28 21:40 39.29651 8.97935 1026 ft 146 kts 101°
2026-04-28 21:40 39.29407 8.99194 1002 ft 144 kts 112°
2026-04-28 21:41 39.28925 9.00375 889 ft 152 kts 124°
2026-04-28 21:41 39.28289 9.01481 689 ft 153 kts 132°
2026-04-28 21:41 39.27595 9.02520 401 ft 153 kts 134°
2026-04-28 21:41 39.26839 9.03476 217 ft 151 kts 139°
2026-04-28 21:42 39.26083 9.04356 45 ft 143 kts 141°
2026-04-28 21:42 39.25386 9.05148 18 ft 122 kts 139°
2026-04-28 21:42 39.24892 9.05717 18 ft 57 kts 140°
2026-04-28 21:42 39.24690 9.06018 16 ft 32 kts 96°
2026-04-28 21:43 39.24790 9.06125 17 ft 19 kts 330°
2026-04-28 21:43 39.24913 9.06081 17 ft 18 kts
2026-04-28 21:43 39.24971 9.06177 17 ft 12 kts 83°
2026-04-28 21:43 39.24973 9.06200 17 ft 1 kts 83°